Theta_e
289 286 283 287 289 290 289 287 286 290 290 289 290 291 293 296 296 295 296 297 298 299 302 304 304 304 304 304 303 304 304 305 303 303 302 302 301 301 302 303 304 305 305 304
284 282 289 289 289 288 288 285 285 289 289 287 288 288 291 293 293 294 294 295 297 298 300 301 300 302 303 303 302 303 303 303 303 302 302 301 301 301 303 303 303 303 304 304
286 290 288 286 285 284 285 284 285 285 287 288 286 285 289 293 294 294 295 296 296 297 297 299 298 300 302 302 302 301 302 302 301 301 302 301 302 301 300 300 300 302 304 305
284 291 285 283 283 285 281 287 286 285 283 280 284 280 287 291 290 290 292 294 294 296 297 297 298 298 300 301 303 302 302 302 302 302 301 298 297 296 298 299 300 302 303 303
284 282 282 284 284 286 284 286 285 285 283 282 282 279 286 288 287 290 293 295 296 297 296 296 297 297 299 302 302 302 302 302 301 301 301 299 299 299 300 299 301 301 302 302
285 284 284 285 282 286 284 283 282 282 281 276 282 280 284 289 290 291 293 294 295 296 296 296 297 297 298 301 303 303 302 301 301 301 301 300 299 299 298 299 300 300 301 301
283 281 283 284 281 283 284 282 277 275 275 276 283 280 284 290 291 291 293 294 294 296 296 297 296 294 295 297 300 301 301 300 301 301 301 300 300 300 299 300 300 299 299 299
279 278 281 284 284 281 280 282 279 275 276 279 278 277 284 290 292 292 291 292 294 295 295 295 295 294 294 296 298 299 300 299 300 300 300 300 301 300 300 301 301 300 300 300
279 278 282 281 284 286 280 278 284 280 274 277 281 282 286 290 291 291 291 292 293 292 293 292 293 292 292 294 296 298 298 299 299 299 299 299 300 299 299 300 301 300 300 299
280 277 279 280 282 283 282 285 277 279 275 274 279 281 284 288 289 287 287 287 288 289 289 290 290 291 292 293 295 297 298 298 298 299 300 299 300 300 300 299 299 300 300 300
282 279 278 279 279 280 279 279 280 281 280 277 276 282 285 285 286 285 285 286 287 288 288 289 289 290 291 292 293 294 296 297 297 298 299 299 299 299 300 299 299 299 300 299
280 278 276 279 280 280 283 281 282 278 276 277 278 281 286 285 285 286 286 286 287 287 287 287 288 289 290 290 291 291 293 295 296 297 298 298 298 299 299 298 299 300 298 298
277 276 273 276 278 278 277 280 281 283 280 280 276 280 285 285 285 285 285 285 285 285 286 286 286 286 286 287 288 289 290 292 294 295 296 297 297 297 297 298 298 299 298 297
279 273 272 269 273 278 275 277 280 280 278 279 279 283 282 283 284 284 283 284 284 283 283 284 284 284 284 285 285 287 288 289 291 293 294 295 295 296 296 297 297 297 297 296
276 269 272 273 274 276 279 276 278 278 280 278 281 282 285 284 282 281 282 283 282 281 281 281 281 282 282 282 283 285 286 287 288 290 292 293 295 295 295 295 295 296 296 296
276 269 271 271 274 277 274 278 281 279 279 280 283 284 283 281 281 280 279 280 279 279 279 279 279 280 280 280 281 283 284 285 287 287 288 290 292 292 293 294 294 294 294 294
272 271 270 267 273 273 271 276 278 282 282 282 277 283 285 280 278 278 278 278 277 277 277 276 276 278 277 277 279 281 282 283 284 284 285 285 287 289 291 292 292 292 292 293
271 270 271 268 270 264 274 276 276 274 273 275 276 277 279 278 277 277 277 276 276 276 276 275 275 276 276 276 276 280 280 280 280 281 281 282 283 284 286 288 289 291 292 289
276 273 266 266 268 272 272 273 273 271 270 274 274 275 277 278 278 274 277 277 275 275 275 275 275 276 275 273 275 277 277 276 276 276 278 279 282 283 284 285 287 287 287 287
273 274 270 267 264 263 270 275 278 277 267 274 274 274 274 278 274 272 276 276 275 275 275 273 274 274 273 272 273 274 273 272 271 272 274 277 279 282 283 284 285 287 287 287
266 267 265 266 264 269 274 276 278 267 268 275 275 274 274 272 273 274 276 276 275 274 274 273 273 272 271 271 271 271 271 269 270 271 272 275 278 280 283 284 285 286 286 287
266 265 265 266 264 262 277 276 270 274 277 275 274 273 273 274 274 273 273 274 273 272 272 272 271 271 271 270 269 269 268 269 269 269 270 272 275 278 282 283 285 285 286 285
265 269 266 267 267 275 276 275 275 276 277 273 273 272 272 271 271 272 272 272 271 271 270 270 269 269 269 268 268 267 267 268 267 267 268 270 273 276 278 281 283 284 285 285
271 272 270 270 273 275 274 273 273 273 272 271 271 270 270 268 270 270 270 271 270 269 269 268 267 267 267 267 267 266 267 266 265 266 267 269 271 273 276 279 283 283 284 284
272 272 270 270 274 274 271 270 270 271 270 269 269 268 268 268 268 268 268 268 268 268 268 267 266 266 266 266 265 265 265 265 264 265 266 268 269 271 273 277 278 281 284 285
274 271 269 269 270 270 271 269 267 268 266 267 266 266 266 266 266 266 266 266 266 265 266 265 265 265 264 264 263 264 263 263 262 263 265 266 267 269 272 274 275 279 282 284
Wind_Speed
9 11 21 22 26 28 16 15 22 13 3 6 19 28 23 21 23 22 22 23 24 24 25 19 19 22 22 20 21 22 22 21 16 13 12 11 11 10 10 9 13 14 12 12
6 24 23 21 22 24 25 24 27 17 10 6 20 35 24 21 27 24 24 24 26 26 24 21 19 18 22 23 21 22 23 21 19 14 12 9 10 10 10 10 12 11 12 13
23 25 15 19 17 21 25 28 25 23 8 15 14 33 21 20 28 25 23 24 25 25 23 20 17 21 20 21 24 23 22 23 20 18 13 8 10 7 8 9 8 11 14 13
19 28 15 16 22 23 24 19 21 19 9 12 3 21 19 18 15 13 15 19 22 21 18 17 16 19 21 22 18 21 22 22 21 23 18 20 16 13 10 12 10 10 14 14
17 9 18 22 25 20 13 7 15 16 17 11 16 10 11 4 5 13 19 19 16 13 13 15 16 17 19 17 19 19 21 22 22 23 21 17 16 12 8 9 14 13 12 13
21 3 7 6 2 21 15 8 7 4 5 9 17 14 37 15 11 10 7 6 2 1 3 6 7 10 14 14 15 17 20 21 21 22 22 23 21 17 12 14 12 10 10 10
15 20 6 4 7 4 12 11 6 7 7 13 3 14 28 8 11 11 8 5 5 5 5 8 6 6 9 13 16 15 19 21 22 23 23 23 21 19 19 18 13 14 10 9
10 10 21 17 21 11 18 16 8 13 11 14 6 15 11 6 12 11 7 9 11 7 5 6 6 4 5 10 14 16 16 17 18 19 21 18 20 13 13 16 13 12 12 12
5 9 2 2 6 15 9 16 18 6 2 4 9 12 11 14 14 7 7 4 4 7 8 10 10 9 4 5 10 14 16 16 18 19 17 17 16 16 14 15 13 12 12 10
13 16 2 3 3 6 10 6 8 7 9 12 13 17 13 7 5 5 9 10 11 12 13 13 13 13 10 7 3 8 12 16 17 18 17 16 17 17 15 13 15 14 13 13
11 9 3 1 11 15 10 10 6 3 6 6 7 6 7 4 7 9 11 12 12 13 14 14 14 14 14 11 7 2 6 10 12 14 14 15 15 16 15 14 15 15 15 15
11 9 12 19 1 3 10 14 18 7 8 6 6 4 6 10 10 11 11 11 13 14 13 14 15 15 16 15 13 9 4 5 9 11 13 13 13 14 14 14 15 14 14 14
15 7 6 7 2 1 6 14 9 18 4 15 10 9 4 7 9 9 11 10 11 13 14 14 15 15 16 15 15 14 12 6 3 6 10 12 12 14 15 14 13 13 14 14
11 7 11 11 17 14 6 8 18 17 11 14 14 19 9 9 7 7 10 10 11 13 15 14 14 15 14 14 15 15 14 13 10 3 6 9 11 12 12 12 12 12 13 14
9 11 14 19 22 21 20 10 8 16 22 14 19 17 10 8 8 7 7 9 11 14 15 15 15 14 15 15 15 15 14 14 13 8 3 5 6 8 9 11 12 12 13 12
8 12 16 19 20 14 18 16 17 13 19 22 22 23 12 10 9 8 9 10 12 13 14 14 15 16 16 16 15 14 15 15 14 13 12 9 4 5 7 8 9 11 11 12
8 9 11 16 19 19 11 3 10 9 12 16 20 18 3 7 10 10 9 11 12 12 13 14 14 14 15 16 15 14 14 13 13 13 13 13 12 8 3 6 9 9 11 11
12 15 8 9 9 10 6 14 6 12 16 15 11 10 9 10 14 13 13 13 13 12 12 13 12 13 14 14 14 13 13 14 14 14 13 13 13 11 9 3 5 5 6 8
9 10 6 7 8 11 7 11 8 6 7 12 13 14 9 10 16 16 13 12 11 10 10 12 12 12 13 14 14 12 13 13 14 15 15 14 13 12 10 8 5 3 5 7
15 11 8 6 6 5 5 10 13 6 2 8 9 12 14 4 1 7 11 10 11 11 10 10 10 12 13 14 14 12 12 14 15 16 15 14 12 12 10 9 7 4 3 7
8 6 6 10 7 4 7 13 9 3 4 5 8 9 11 8 5 5 8 9 10 10 11 11 11 10 11 15 15 13 11 13 14 14 14 14 13 13 12 10 6 5 5 5
6 7 6 7 7 4 11 9 7 3 3 3 4 5 5 5 5 8 9 9 11 12 12 13 11 10 10 11 11 12 14 15 13 13 13 13 13 11 10 12 9 5 4 5
6 3 6 4 8 14 5 4 5 9 2 3 3 4 4 4 5 6 6 7 8 9 9 9 11 10 8 10 12 13 14 15 15 14 14 12 12 11 11 11 10 6 3 4
5 4 5 7 4 9 1 5 5 7 7 5 6 5 5 5 6 7 7 7 7 8 9 9 10 10 9 9 11 10 13 13 13 13 13 12 13 14 11 9 7 6 5 4
10 4 6 7 12 4 4 4 3 4 4 4 4 4 3 5 6 7 8 8 8 8 9 9 10 10 10 9 10 10 11 12 12 12 11 11 9 11 12 9 9 8 7 7
9 9 6 10 2 3 4 2 1 3 3 0 4 4 3 4 6 6 7 9 10 10 11 11 12 12 11 12 12 10 10 10 11 12 10 9 10 10 9 10 11 11 16 17
Wind_Direction
194 214 218 213 219 238 264 264 263 269 253 250 254 265 262 268 267 259 255 256 257 253 249 240 221 214 213 207 202 198 192 191 181 181 180 183 188 181 185 187 186 181 181 182
173 232 227 229 228 236 241 254 259 264 252 260 277 275 273 261 261 252 250 250 250 253 250 236 218 205 205 201 199 195 195 188 186 181 182 181 180 196 189 184 186 181 178 183
213 237 207 202 212 223 235 239 250 253 278 254 283 279 275 249 240 254 249 247 250 248 250 244 217 208 205 206 201 196 192 186 187 180 173 166 157 169 186 191 177 183 184 185
235 249 195 194 223 207 239 231 242 248 241 259 244 284 279 277 239 233 243 238 239 245 246 248 235 212 207 209 200 197 191 189 185 179 179 177 178 179 192 182 180 181 185 186
221 199 199 216 222 186 237 172 211 225 233 277 223 259 268 99 253 257 247 244 252 250 250 250 240 228 217 204 198 195 191 189 186 185 184 182 189 189 171 176 171 179 182 185
251 64 222 226 82 188 134 115 100 129 198 239 233 217 279 265 279 263 285 251 191 113 228 246 257 245 226 209 195 192 192 191 187 187 187 187 189 183 172 172 177 179 177 181
234 226 192 178 131 154 193 162 186 208 202 242 174 201 258 321 289 261 272 246 286 295 299 296 283 229 218 206 197 191 192 192 188 188 191 190 189 183 182 177 180 175 175 184
223 230 197 183 217 180 197 190 205 226 216 240 165 226 246 256 267 294 299 279 283 296 344 5 359 323 227 207 199 197 194 192 189 189 192 192 191 187 189 185 179 182 184 185
251 247 199 207 210 188 171 213 236 286 43 272 214 251 266 248 264 316 357 9 36 48 34 30 23 16 360 209 207 202 196 192 189 190 189 191 191 189 189 179 180 182 180 177
284 280 151 139 186 238 217 160 182 217 222 227 245 260 256 235 214 54 50 49 52 47 39 34 31 25 20 5 244 209 203 200 193 190 188 189 190 189 186 176 178 178 178 172
285 243 257 178 211 196 177 201 221 262 232 237 255 235 5 39 85 83 66 59 55 52 41 36 37 33 33 33 19 220 207 198 196 195 192 190 190 189 184 184 183 182 176 177
359 296 261 234 110 301 261 232 203 207 195 236 310 268 58 86 83 86 76 63 53 51 46 38 37 33 34 32 29 25 354 216 202 199 195 196 193 190 190 190 186 179 179 179
1 317 296 223 188 45 229 228 252 245 350 222 218 242 122 116 93 74 72 57 54 45 40 39 38 33 27 24 22 25 24 8 272 206 196 195 197 196 201 197 190 183 181 181
339 295 323 311 323 330 269 224 214 213 230 222 221 235 172 171 129 82 69 56 48 43 36 32 32 30 25 21 18 15 16 12 359 285 216 204 203 204 204 201 193 189 187 182
326 297 306 301 296 297 280 259 251 229 225 221 231 243 203 150 115 73 56 61 54 47 40 32 26 22 20 19 18 12 12 12 4 6 323 250 214 207 203 197 196 190 190 193
299 288 300 288 307 313 314 297 238 235 251 259 249 245 79 108 110 75 55 52 48 43 41 36 28 23 19 15 13 9 7 13 16 22 19 4 312 214 207 209 204 200 197 193
285 283 296 284 297 312 283 344 326 258 227 251 247 258 194 108 69 51 51 58 53 36 29 27 26 21 15 10 5 9 4 10 21 22 17 10 2 354 298 225 201 200 201 194
271 282 249 267 283 257 67 23 26 74 35 11 23 18 28 100 94 66 46 46 41 30 24 21 16 16 14 8 2 2 7 14 18 19 15 6 357 349 340 295 231 204 197 194
328 291 309 287 307 306 26 14 342 338 47 18 19 14 0 132 107 64 40 42 45 41 23 12 7 14 13 9 358 3 13 11 13 11 2 355 349 341 335 323 276 216 193 198
348 328 289 279 289 300 39 326 327 265 112 25 25 24 11 205 89 53 20 30 29 33 30 26 12 14 8 6 359 5 14 9 6 357 346 338 334 336 333 320 297 250 215 218
313 311 328 319 304 280 2 320 311 310 54 43 39 27 29 48 38 29 21 20 18 20 20 21 19 24 20 359 355 0 4 15 351 345 341 339 335 330 332 324 310 276 235 225
290 307 329 317 305 286 1 334 358 336 108 108 78 47 30 37 27 20 17 10 7 9 6 12 7 7 9 6 3 358 1 346 342 348 345 338 334 333 328 328 320 305 257 234
268 286 279 272 283 315 19 11 15 350 185 132 110 51 17 6 4 355 356 359 360 359 353 2 351 347 2 5 3 352 347 345 342 341 340 335 333 337 330 329 328 319 291 258
244 205 241 303 254 297 181 80 38 46 47 38 32 31 18 351 340 336 337 344 338 341 340 346 341 341 339 357 352 343 337 339 338 335 334 332 336 335 333 321 323 329 310 271
262 256 252 256 279 264 147 96 46 90 67 15 10 6 351 332 318 322 319 319 322 324 328 333 328 322 325 336 335 333 330 337 339 330 326 330 328 325 317 319 320 319 301 281
247 242 230 267 165 261 292 140 171 203 161 60 318 315 309 292 282 292 292 303 309 311 319 318 315 313 317 321 319 321 324 329 332 321 323 323 320 317 311 317 315 314 311 308